Theta_e
311 310 310 309 308 307 301 301 301 300 299 298 299 299 299 300 301 308 313 306 310 315 315 314 314 317 318 319 322 321 326 326 327 329 327 327 328 329 330 332 335 336 338 336 338 338 339 345 335 338 337 334 338 337
312 310 309 309 306 305 302 301 301 300 300 299 298 299 299 299 300 307 312 309 309 310 314 313 311 312 312 315 316 319 322 328 327 331 332 332 330 333 336 335 334 335 342 338 340 342 338 342 346 346 342 342 340 340
312 310 309 307 306 304 302 301 301 301 300 299 298 298 299 299 300 301 308 311 312 313 314 313 314 315 313 315 315 319 322 321 324 323 326 328 335 331 334 332 335 336 330 333 339 343 340 339 345 339 344 341 341 341
312 310 309 308 305 304 302 301 301 301 301 300 299 298 299 299 299 301 311 311 313 314 315 317 317 315 314 315 315 316 317 320 321 321 323 326 328 328 331 330 330 331 332 337 340 341 337 343 343 344 345 343 340 340
312 309 308 307 305 305 301 301 301 301 302 300 299 298 299 298 299 301 310 311 312 314 317 317 315 315 315 315 316 316 318 318 321 321 323 323 325 326 325 329 330 331 334 336 340 341 341 345 344 343 343 341 340 341
310 309 307 307 306 304 301 301 301 301 302 301 299 298 298 298 300 311 313 313 312 312 315 317 317 317 316 315 315 317 318 318 317 320 321 322 324 323 325 327 328 329 331 329 333 341 343 343 343 341 341 341 341 342
310 308 308 306 306 303 301 301 301 302 302 301 299 298 298 298 301 310 313 315 306 305 316 315 315 317 316 316 316 316 317 316 317 318 320 321 322 322 324 326 328 329 324 332 333 336 337 338 341 339 341 340 340 340
309 308 308 307 307 302 301 301 301 302 301 301 298 298 298 298 301 306 309 308 306 313 313 316 319 319 317 316 316 316 317 316 317 317 317 320 321 321 323 322 323 323 321 328 327 331 334 339 337 336 334 332 331 333
308 308 309 309 308 302 301 301 301 301 301 298 298 298 298 302 310 314 311 307 306 314 316 313 317 322 319 316 317 319 318 318 317 317 317 317 321 321 321 322 320 327 329 326 318 329 328 331 336 332 327 324 327 329
308 308 309 309 309 306 301 300 301 301 299 298 298 307 310 312 311 310 303 311 311 312 312 315 315 317 320 317 316 317 318 319 317 318 317 317 318 318 319 317 322 322 321 323 328 329 327 328 330 326 324 327 325 324
309 307 307 308 309 307 303 301 301 300 298 299 307 312 312 308 308 313 314 313 313 313 312 312 313 315 318 318 323 319 321 322 322 319 318 318 319 318 321 322 321 321 320 320 325 330 328 330 328 328 328 327 327 327
307 307 305 306 308 307 307 304 300 298 301 306 310 310 307 310 312 313 314 313 315 314 313 313 313 313 319 318 320 321 320 320 321 317 322 322 330 324 323 322 321 321 322 324 325 326 326 326 326 326 323 326 326 326
307 308 307 307 307 306 305 304 300 302 303 307 310 309 311 311 313 313 314 314 314 314 315 314 316 313 314 316 316 321 323 321 320 321 322 326 325 324 323 322 321 320 320 321 321 321 322 322 323 323 324 324 325 325
303 301 301 301 302 302 303 301 299 302 307 309 310 309 312 311 311 312 313 314 315 315 315 315 316 313 314 317 317 317 318 320 322 320 319 325 325 324 323 323 322 321 321 321 321 321 322 322 323 323 324 324 325 325
301 300 300 300 300 301 299 298 300 305 308 310 309 311 310 312 311 312 315 317 316 316 318 316 318 315 317 318 320 321 321 321 321 324 325 323 324 324 323 322 322 322 322 322 322 322 323 323 323 324 324 324 323 324
301 300 300 300 300 300 299 297 303 307 309 310 310 312 310 311 313 313 313 314 314 315 315 317 318 317 320 320 317 319 318 322 323 323 322 323 323 322 322 321 321 322 322 322 322 322 322 323 323 323 322 324 323 322
301 301 300 300 300 297 296 302 305 307 308 309 310 311 311 313 314 313 313 316 315 318 318 318 319 319 317 320 319 320 322 324 321 320 318 321 321 321 321 321 321 321 321 322 321 321 322 322 322 321 321 322 321 320
302 302 301 300 297 298 302 304 305 306 308 309 311 311 313 315 315 315 315 316 317 317 318 319 319 321 320 318 321 317 315 322 321 320 320 321 322 321 321 320 320 321 321 321 321 321 322 322 321 321 321 321 320 320
302 302 301 299 302 303 304 306 307 307 307 308 311 312 312 313 314 315 316 316 316 318 318 318 319 320 321 320 321 321 322 321 319 321 321 322 321 320 320 320 318 320 321 320 321 321 320 319 319 320 319 319 320 318
302 302 301 299 302 304 304 305 307 310 310 309 311 311 312 313 315 314 315 315 315 316 316 318 318 320 318 314 319 319 320 319 318 318 319 319 320 319 320 319 319 319 319 320 319 319 320 320 319 319 318 318 318 317
302 302 298 301 305 307 307 305 308 310 312 311 311 313 314 315 315 316 316 315 315 315 317 316 318 318 320 318 318 319 319 319 318 318 317 317 316 316 317 319 319 319 320 319 320 318 319 317 317 317 318 317 316 317
301 301 302 303 305 308 309 309 310 311 312 313 313 314 316 317 317 316 316 315 315 316 317 317 319 319 319 320 320 319 318 318 317 316 315 316 317 318 317 316 317 317 318 318 317 318 318 317 316 315 315 315 315 315
302 303 305 306 308 309 309 310 312 312 313 313 313 314 316 316 316 316 315 314 316 317 318 318 319 318 317 316 316 317 318 317 317 316 318 315 315 315 316 316 316 315 315 316 317 317 314 311 312 314 316 316 315 315
304 306 307 308 309 309 310 312 313 314 315 315 315 315 315 315 314 314 316 315 315 316 315 316 315 315 316 318 317 317 316 315 316 315 315 315 315 316 315 315 316 315 316 315 312 313 315 315 315 315 314 314 313 313
306 305 307 305 309 310 311 312 313 313 314 315 315 315 314 313 315 317 318 314 314 315 315 316 315 316 316 317 317 316 314 315 315 316 315 315 315 315 315 316 317 318 316 315 314 314 315 315 314 313 314 313 312 313
305 307 307 309 310 311 312 312 312 313 313 313 313 313 312 313 314 312 315 316 315 315 315 317 317 317 318 317 317 314 315 315 315 314 314 314 314 316 315 315 315 315 314 315 314 314 314 314 312 313 314 314 312 313
306 310 310 310 310 311 311 311 311 311 312 312 313 313 313 313 314 314 315 316 316 316 316 317 317 316 317 317 315 314 314 315 315 315 315 315 315 314 314 314 315 314 315 313 313 312 313 313 313 313 313 314 313 312
308 310 310 310 310 310 311 311 312 312 312 311 312 313 313 313 315 316 315 315 315 315 316 316 316 315 315 314 314 313 314 315 316 317 316 316 316 315 315 315 315 313 314 314 314 314 314 314 314 314 313 313 313 313
309 309 310 310 310 310 310 311 312 312 312 313 314 314 316 315 315 315 315 315 315 315 315 315 314 314 314 315 315 316 317 317 316 316 315 315 315 315 315 315 312 311 312 312 311 311 310 313 314 313 313 313 313 313
309 309 309 310 310 311 312 312 312 314 314 313 313 313 313 313 314 313 314 315 316 314 315 315 315 315 316 316 316 316 316 316 316 316 316 316 316 316 315 315 313 313 313 314 314 313 313 312 312 313 313 314 314 314
309 310 310 311 311 312 314 314 314 314 313 313 312 312 312 311 313 313 314 316 315 316 315 315 316 317 317 317 316 316 316 316 315 314 314 314 314 314 314 313 313 314 313 313 313 313 314 314 314 314 314 314 314 314
309 309 309 310 312 312 313 312 312 312 312 312 312 312 314 314 315 314 314 315 316 316 317 316 316 317 317 317 316 315 314 315 316 316 314 315 315 314 314 313 314 314 314 314 313 314 314 314 314 313 314 314 313 313
311 310 310 313 313 313 312 314 315 315 315 316 316 315 315 315 315 315 316 316 317 317 318 317 317 317 316 314 316 316 316 315 314 313 312 312 312 312 313 314 314 315 314 313 314 313 313 313 313 313 312 312 312 312
Wind_Speed
34 36 34 29 22 18 17 14 11 9 7 6 6 3 1 1 2 3 1 7 4 9 6 4 5 5 7 4 7 14 10 9 9 10 10 12 8 4 9 14 14 10 10 12 13 17 14 19 13 3 7 28 24 21
32 34 35 30 24 20 18 16 12 10 8 6 6 4 1 1 3 7 3 5 6 7 8 6 7 7 6 4 7 10 10 5 8 7 7 6 6 6 9 10 13 5 4 2 8 3 3 14 15 14 7 2 12 12
32 34 37 31 30 22 20 17 14 10 8 7 6 5 2 2 3 5 2 4 7 10 12 13 12 4 5 5 4 8 6 6 4 7 8 6 4 5 5 5 15 4 6 6 21 6 7 6 15 14 6 2 7 10
31 36 38 27 28 23 20 18 14 11 9 7 6 5 3 2 3 5 5 5 5 8 7 11 4 4 5 5 2 1 4 7 9 10 14 8 4 3 1 3 6 15 9 8 6 15 14 18 9 9 7 4 6 7
31 39 39 28 27 23 21 18 15 12 9 7 6 5 4 3 3 4 2 3 3 5 7 3 3 4 5 5 4 2 3 6 8 8 5 6 3 6 6 3 5 23 12 7 4 8 14 10 8 9 9 8 9 10
34 43 32 32 27 23 21 18 16 12 9 7 6 5 4 2 3 6 4 2 6 2 5 3 7 5 6 5 5 5 5 6 7 5 9 4 10 3 4 4 12 7 19 20 17 21 20 15 9 9 7 11 9 10
35 41 33 31 26 23 21 19 17 12 9 8 6 4 3 3 7 3 2 4 2 1 4 4 5 7 7 7 9 9 8 9 6 6 4 5 3 4 4 8 14 10 16 15 34 8 9 8 9 7 9 12 16 16
37 38 37 33 27 24 21 19 16 12 8 7 5 4 3 4 4 1 2 1 2 0 4 4 2 9 8 9 9 9 6 10 8 10 4 4 6 1 4 11 17 8 13 19 18 35 17 11 19 24 23 23 23 19
38 39 37 34 30 25 22 19 15 11 9 7 6 6 6 5 3 4 6 3 1 3 6 5 7 4 5 10 10 5 5 7 11 8 10 7 7 5 9 15 18 3 6 6 13 16 11 9 17 13 8 6 17 8
39 37 32 30 31 29 24 19 15 12 11 11 11 2 5 5 7 3 1 3 3 5 6 8 13 2 7 8 6 4 2 6 7 10 15 8 8 17 20 18 9 4 5 4 2 14 11 7 15 14 19 16 13 11
36 38 32 25 33 29 26 20 16 16 14 10 4 2 3 4 4 3 5 5 7 4 7 11 15 9 4 2 5 10 4 7 6 5 6 7 9 13 14 7 3 1 2 5 6 6 6 7 9 7 9 14 14 9
34 37 36 28 33 31 27 22 21 20 8 4 2 4 5 4 4 4 4 4 4 5 7 9 9 10 3 4 6 5 2 5 4 3 3 7 6 13 10 6 4 6 4 3 4 4 5 6 8 9 11 2 5 3
27 40 47 32 37 32 28 27 23 15 12 4 2 6 4 3 1 5 7 4 5 3 5 6 4 4 3 3 5 3 1 4 13 4 4 2 9 13 9 8 7 4 4 4 3 2 3 3 4 5 3 2 2 2
24 30 32 35 33 31 32 27 25 18 10 6 6 3 4 4 5 5 8 6 8 11 10 12 8 6 6 4 3 3 4 4 1 2 5 0 7 9 9 8 8 7 4 4 4 5 6 6 6 5 5 4 4 4
17 19 25 28 30 32 30 29 24 17 3 6 6 3 8 9 8 10 11 6 2 3 5 4 5 7 3 3 4 3 4 4 3 1 3 8 10 9 7 6 3 4 3 5 6 7 8 7 7 6 5 7 8 5
22 20 26 29 26 25 26 28 20 6 3 3 4 6 8 7 7 4 3 6 10 8 6 5 2 4 3 6 6 6 4 1 2 3 5 4 5 7 5 4 3 3 3 4 4 5 5 5 7 8 7 4 6 7
25 19 25 27 26 22 24 24 6 4 5 3 6 8 10 2 4 8 9 8 6 7 2 2 3 6 3 3 8 3 3 5 11 12 14 4 5 5 4 3 4 5 4 4 4 3 3 4 4 5 4 4 5 4
19 26 25 27 27 26 22 14 7 6 5 10 8 10 3 5 4 1 4 10 6 6 6 3 3 6 4 6 3 3 13 6 9 14 12 7 4 3 4 5 5 6 4 4 3 2 1 2 3 3 4 5 4 6
24 27 26 29 20 13 7 5 3 6 12 10 4 6 6 6 3 1 2 4 5 2 2 4 4 4 2 6 5 9 7 7 6 7 5 5 3 2 3 5 5 5 5 3 4 5 3 3 3 3 5 4 5 6
24 25 26 21 13 3 4 5 3 5 4 7 10 8 6 4 4 7 5 8 10 9 8 4 4 5 9 11 6 7 4 3 4 4 9 3 2 3 4 5 4 4 3 3 3 5 3 4 4 3 5 6 6 5
21 26 21 10 1 1 2 6 5 2 3 3 10 8 3 4 8 4 11 6 9 3 8 4 4 8 1 3 3 3 7 5 5 7 8 8 8 7 6 4 3 4 4 2 2 3 4 4 5 5 5 6 6 7
22 17 6 3 1 2 3 2 2 3 2 4 4 5 2 3 5 7 6 9 7 6 1 1 3 5 4 6 6 5 6 7 7 7 8 4 4 4 2 2 2 2 2 3 2 2 2 4 6 9 9 4 1 4
8 1 3 4 5 5 3 6 3 4 4 8 6 4 3 4 6 8 5 4 2 6 3 3 4 3 3 5 6 7 6 6 5 5 3 4 4 3 2 3 2 7 8 8 7 7 9 12 6 2 2 4 3 4
1 1 2 2 3 3 7 5 5 2 4 5 4 4 3 5 7 6 2 2 1 3 1 2 4 5 6 1 3 5 6 4 4 4 4 4 2 2 7 10 8 9 7 7 8 7 7 3 1 5 8 5 5 4
3 2 2 4 2 2 1 3 3 2 2 3 2 2 3 5 3 3 1 6 2 2 4 1 3 3 5 1 2 4 4 1 2 3 4 6 10 10 7 5 6 5 7 7 7 4 4 2 3 5 7 8 3 4
2 3 3 2 4 1 0 2 3 6 5 2 2 4 3 3 2 1 3 2 3 3 3 5 6 5 3 2 1 3 2 9 13 13 17 16 12 6 3 3 3 6 6 7 2 3 6 1 2 2 2 2 4 2
2 1 3 2 1 2 2 2 3 2 1 1 3 4 2 2 2 1 5 6 3 3 4 3 3 3 2 4 5 9 19 10 8 8 10 7 4 4 3 1 2 4 3 2 2 5 3 2 3 4 2 4 2 2
2 1 3 5 3 4 1 2 4 3 3 3 1 1 2 0 1 2 3 3 4 4 4 2 4 6 5 7 17 19 11 7 5 6 7 8 12 5 6 4 4 4 3 2 2 2 4 5 6 6 5 6 5 2
3 2 1 4 5 2 2 0 2 4 5 6 3 3 5 3 3 2 3 6 5 4 2 5 14 18 18 15 9 8 8 6 8 3 1 5 5 5 5 6 4 5 8 4 5 4 2 6 4 4 6 7 7 6
2 1 3 3 1 0 2 3 2 0 1 1 3 5 6 7 8 9 7 5 4 5 12 15 8 8 6 7 5 6 10 9 6 7 7 9 10 6 8 10 8 4 6 9 6 5 5 4 5 6 6 9 9 5
1 1 1 1 2 3 5 5 1 1 0 2 4 4 5 5 6 4 6 9 13 11 9 6 3 4 5 2 2 8 8 3 1 3 4 5 6 6 6 5 5 4 5 4 4 6 8 8 7 11 8 5 7 6
1 2 1 2 3 4 2 1 1 1 1 2 2 2 2 3 2 4 17 10 9 6 1 4 8 7 5 11 5 5 4 3 7 3 3 3 2 1 3 4 5 5 5 5 7 8 7 8 10 9 8 4 5 7
3 4 4 2 0 2 7 5 5 6 6 5 6 13 16 14 8 10 11 11 9 7 10 14 1 5 4 2 1 3 4 4 6 7 8 10 10 10 8 5 4 7 5 5 9 8 8 5 6 7 8 10 10 9
Wind_Direction
237 228 215 212 213 222 227 233 239 247 260 270 256 260 259 215 178 159 157 315 1 298 325 9 318 322 324 327 335 352 289 213 258 236 243 251 277 302 285 250 238 231 227 228 251 235 227 12 0 56 171 327 144 150
232 222 210 206 207 217 223 227 234 238 245 261 256 248 257 203 155 134 64 343 308 269 305 308 262 257 259 283 305 312 305 348 352 313 13 336 287 339 347 295 308 224 106 34 316 91 61 89 78 37 128 52 72 104
227 216 203 200 203 213 218 220 226 231 237 252 257 242 236 202 191 204 188 352 316 264 271 237 219 203 220 242 268 304 36 351 305 345 301 283 76 353 3 318 329 132 143 109 283 58 73 96 111 125 71 323 131 132
219 207 199 201 197 211 213 216 220 225 228 239 251 246 236 210 196 181 99 322 319 288 279 138 183 226 197 218 224 256 315 317 295 297 298 307 337 59 170 305 315 313 300 194 169 168 141 116 96 112 145 190 123 128
210 200 195 197 197 208 209 211 214 219 221 230 240 248 241 231 201 186 111 276 338 321 323 16 178 200 190 199 207 227 302 320 306 286 259 277 8 7 311 148 358 351 350 321 126 126 142 122 143 141 154 148 159 150
201 197 190 193 202 206 204 206 211 214 217 226 230 236 233 209 148 93 184 209 233 353 286 272 125 177 207 212 223 239 259 280 285 314 288 301 67 354 302 325 157 308 317 337 325 131 121 132 147 147 144 155 160 152
200 192 187 189 201 201 200 203 207 206 211 217 220 219 204 206 190 252 323 219 240 251 265 259 213 163 199 214 233 239 221 257 255 274 267 247 299 302 272 285 2 4 360 345 339 10 111 136 119 113 98 84 97 117
201 186 186 194 196 194 196 200 201 201 202 205 202 182 171 150 129 233 231 183 153 229 262 269 161 185 176 217 230 216 248 240 220 249 218 255 128 15 260 256 328 338 13 38 6 352 23 54 74 77 70 55 59 70
197 188 191 195 199 190 192 194 194 191 182 182 162 141 129 155 208 193 271 233 213 221 295 246 272 59 188 237 247 193 230 267 247 208 242 213 217 214 233 244 279 160 312 72 337 319 325 20 88 86 62 7 18 336
197 199 201 200 199 192 186 186 182 174 168 159 143 141 201 152 251 201 58 172 201 218 241 266 277 215 225 192 233 223 273 249 240 222 229 199 234 236 221 221 224 271 283 285 274 274 294 336 109 121 118 135 152 132
202 201 209 213 199 191 182 176 171 166 156 153 200 44 101 137 137 209 198 209 191 222 214 233 258 305 45 319 34 359 21 338 292 269 202 214 216 209 133 140 209 285 301 278 235 292 302 67 53 85 120 143 159 138
202 204 200 211 202 190 186 180 170 158 162 193 119 90 126 191 216 213 200 213 230 224 171 209 210 232 112 352 169 192 200 234 213 339 271 247 104 111 123 115 102 84 86 46 32 18 18 41 52 84 119 19 65 99
201 195 200 203 192 185 176 171 167 152 158 148 182 176 192 149 110 212 189 196 205 201 135 206 159 235 139 271 260 135 36 287 305 288 219 106 195 122 120 133 118 103 109 117 104 38 2 20 44 65 56 49 24 308
159 158 152 163 167 169 165 163 163 155 156 196 165 349 205 195 220 212 211 224 130 171 169 192 183 194 197 156 255 266 253 312 137 359 293 103 137 118 106 100 88 64 29 18 359 344 339 357 3 349 351 350 324 304
147 148 158 163 158 156 155 165 162 166 235 210 199 205 206 243 210 219 93 115 140 161 143 188 201 220 174 209 124 275 256 235 339 49 349 158 139 139 111 91 78 59 19 343 338 327 332 334 325 319 334 334 323 333
151 144 155 147 152 158 161 160 155 145 231 226 235 238 185 202 207 215 157 216 146 191 169 206 278 240 92 303 223 216 254 34 47 71 117 77 111 105 95 69 45 17 345 317 310 305 306 309 318 323 321 327 9 2
139 144 147 150 143 145 150 153 144 212 213 224 216 243 215 205 307 182 160 103 135 122 194 30 260 219 311 340 252 2 319 114 128 114 75 74 82 71 54 28 0 340 320 307 307 311 323 308 304 297 324 6 355 345
141 145 138 131 133 134 143 154 191 197 219 228 233 196 185 105 8 99 170 122 196 145 199 253 296 226 247 268 56 70 337 116 123 131 127 127 95 37 8 348 344 346 348 344 338 341 57 52 58 40 24 28 43 48
147 147 141 133 125 144 145 186 217 198 218 199 216 167 181 198 125 208 89 151 200 212 265 262 263 256 317 15 350 119 105 103 143 154 146 126 101 57 355 342 318 320 344 10 9 1 4 52 65 46 52 51 67 56
142 138 138 139 142 169 148 148 210 256 222 196 181 171 173 155 221 202 217 203 195 210 227 230 327 57 65 198 265 68 92 73 7 358 158 128 147 32 12 341 316 318 357 329 10 34 39 86 92 85 57 71 60 49
132 145 147 135 131 319 268 165 207 210 299 244 188 158 148 177 224 235 230 215 221 168 247 249 237 101 167 25 11 8 22 17 348 353 335 317 348 339 324 312 345 353 353 340 23 59 63 80 87 84 82 85 56 75
137 129 133 125 234 281 274 191 186 172 256 244 182 134 150 199 192 221 214 240 218 227 323 215 14 32 60 53 48 30 349 335 307 297 287 290 311 290 283 351 359 17 60 48 33 78 93 105 113 128 112 132 101 68
111 132 245 203 204 214 237 196 204 211 190 181 201 174 176 197 183 175 237 210 204 162 237 65 69 3 336 340 326 326 319 311 288 286 282 280 274 246 233 319 112 119 101 92 89 102 119 115 103 121 267 249 211 212
184 299 284 275 215 222 148 179 194 195 166 167 184 132 200 164 183 219 168 281 83 85 318 292 308 275 233 139 325 305 296 296 271 264 253 181 108 329 130 132 138 144 129 122 117 110 82 76 64 333 342 41 32 53
270 280 268 280 242 136 123 166 90 359 125 124 166 149 143 171 209 64 336 280 289 68 116 200 251 268 286 312 300 305 316 258 179 220 185 162 145 135 164 176 175 195 170 170 167 160 153 123 2 9 9 13 328 40
326 203 194 235 116 69 205 170 142 151 189 178 140 114 176 236 120 236 263 55 14 346 287 304 299 277 242 281 223 136 76 134 112 99 112 123 134 171 161 137 211 194 177 184 140 121 134 85 344 330 2 34 64 2
277 235 200 217 145 236 251 120 60 116 121 191 203 176 133 230 195 176 104 46 17 344 317 302 285 237 243 175 153 146 151 134 119 154 178 186 197 200 174 232 111 101 193 142 130 197 244 316 310 340 1 349 230 9
288 345 148 156 206 196 193 207 174 218 233 233 67 228 213 317 54 59 59 23 325 290 280 277 269 243 202 159 144 153 151 142 178 229 238 254 226 206 176 155 170 204 81 90 189 255 285 263 298 301 299 316 315 302
288 245 230 241 224 173 235 169 314 352 338 332 4 359 14 44 35 10 345 317 300 240 192 134 122 125 133 151 174 191 210 214 193 199 255 227 204 235 209 188 185 177 186 196 104 77 307 228 262 275 269 291 303 275
163 254 240 331 54 2 324 328 302 320 19 359 291 279 292 286 293 289 281 242 221 161 148 153 167 178 215 192 196 221 197 206 226 227 232 257 258 209 193 203 216 230 200 208 219 259 306 296 268 302 302 302 301 300
121 237 248 289 289 257 325 338 355 100 239 316 306 262 258 285 301 227 183 174 155 146 144 155 192 220 238 212 342 289 275 318 205 258 242 20 192 182 185 204 210 216 232 226 263 259 250 280 293 297 289 277 259 255
165 152 153 242 267 283 273 266 25 312 193 226 256 208 163 150 95 145 156 156 180 192 125 278 240 236 273 229 203 122 94 123 300 264 196 12 60 342 207 226 245 231 240 273 290 288 273 285 293 297 303 295 315 317
179 205 226 251 234 210 181 174 176 171 216 189 173 159 142 128 137 180 192 196 211 228 231 241 273 110 69 63 272 230 212 257 286 284 271 275 277 267 273 291 280 283 269 281 298 301 303 305 319 328 316 304 297 294